Location: Arcizac
(43.0933°N, 0.0112°E)
Time: 00:02:55
(UTC+00:00)

Cosmos 1743 - Pass Details

Date: 14 December 2019
Orbit: 512 x 526 km, 82.6° (Epoch: 19 January)

Event Time Altitude Azimuth Distance (km) Brightness Sun altitude
Rises 18:03:02 0° 348° (NNW) 2,660 6.3 -17.1°
Reaches altitude 10° 18:05:11 10° 346° (NNW) 1,769 5.4 -17.5°
Maximum altitude 18:09:02 65° 264° (W) 579 3.1 -18.2°
Drops below altitude 10° 18:12:52 10° 183° (S) 1,761 5.6 -18.8°
Sets 18:15:00 0° 180° (S) 2,646 6.5 -19.2°
